sat.trackr.live / text

‹ back to catalog

UNKNOWN

NORAD 87553

UNKNOWN UNKNOWN UNKNOWN

§ Identity

Operator
Country
Launch date
Launch site
Launch vehicle
Mass (kg)
RCS (m²)

External: N2YO · Heavens-Above

§ Orbital elements

Epoch: 2026-05-23T05:10:29.294976Z

Period
106.32 min
Inclination
65.6693°
Eccentricity
0.0684048
Mean motion
13.54391906 rev/d
Perigee alt
547.6 km
Apogee alt
1,564.7 km
Semi-major
7,434.3 km
B*
8.2755e-4
RAAN
324.8158°
Arg perigee
155.4913°
Mean anomaly
208.0349°
Rev number
61,311

§ Raw data

UNKNOWN1 87553U          26143.21561684  .00002543  00000+0  82755-3 0  99902 87553  65.6693 324.8158 0684048 155.4913 208.0349 13.54391906613113

JSON: /api/v1/satellites/87553 · /tle

For live sub-satellite position, see the globe view (requires WebGL).

§ Visibility from observer

Set your observer location to see the next 7 days of passes ≥ 10°. The values pass through the URL so the page stays shareable.

No JS? Fill the form by hand. The geolocation button needs JavaScript.